Huntsville, AL

10:45 AM CST on January 16, 2017 (GMT -0600)
Huntsville International

Weather History for KHSV - September, 2013

Change the Weather History Date:

Thursday, September 19, 2013

  Actual Average Record
Temperature  
Mean Temperature 77 °F 73 °F  
Max Temperature 87 °F 84 °F 101 °F (1925)
Min Temperature 66 °F 61 °F 40 °F (1981)
Degree Days  
Heating Degree Days 0 0  
Month to date heating degree days 0 0  
Since 1 July heating degree days 0 0  
Cooling Degree Days 12 8  
Month to date cooling degree days 220 206  
Year to date cooling degree days 1686 1801  
Growing Degree Days 26 (Base 50)    
Moisture  
Dew Point 64 °F    
Average Humidity 71    
Maximum Humidity 93    
Minimum Humidity 48    
Precipitation  
Precipitation 0.00 in 0.12 in 1.90 in (1953)
Month to date precipitation 1.27 2.30  
Year to date precipitation 44.89 38.62  
Snow  
Snow 0.00 in - - ()
Month to date snowfall 0.0  
Since 1 July snowfall 0.0  
Since 1 September snowfall 0.0  
Snow Depth 0.00 in    
Sea Level Pressure  
Sea Level Pressure 30.10 in    
Wind  
Wind Speed 5 mph (SE)    
Max Wind Speed 10 mph    
Max Gust Speed 14 mph    
Visibility 10 miles    
Events      
T = Trace of Precipitation, MM = Missing Value Source: NWS Daily Summary

Daily Weather History Graph

Daily Weather History Graph

Search for Another Location

Airport or City:

Trip Planner

Search our weather history database for the weather conditions in past years. The results will help you decide how hot, cold, wet, or windy it might be!

Date:

Astronomy

Sep. 19, 2013 Rise Set
Actual Time 6:33 AM CDT 6:47 PM CDT
Civil Twilight 6:07 AM CDT 7:12 PM CDT
Nautical Twilight 5:38 AM CDT 7:42 PM CDT
Astronomical Twilight 5:08 AM CDT 8:12 PM CDT
Moon 6:49 PM CDT (9/19) 6:39 AM CDT (9/19)
Length of Visible Light 13h 05m
Length of Day
12h 14m
Full, 100% of the Moon is Illuminated
Sep 19
Full
Sep 26
Last Quarter
Oct 4
New
Oct 11
First Quarter
Oct 18
Full

Hourly Weather History & Observations

Time (CDT) Temp. Heat Index Dew Point Humidity Pressure Visibility Wind Dir Wind Speed Gust Speed Precip Events Conditions
12:53 AM 68.0 °F - 64.0 °F 87% 30.12 in 10.0 mi East 4.6 mph - N/A   Clear
1:53 AM 66.9 °F - 64.0 °F 90% 30.11 in 10.0 mi ESE 6.9 mph - N/A   Clear
2:53 AM 66.9 °F - 64.0 °F 90% 30.11 in 10.0 mi ESE 4.6 mph - N/A   Clear
3:53 AM 66.9 °F - 64.0 °F 90% 30.11 in 10.0 mi ESE 4.6 mph - N/A   Overcast
4:53 AM 66.0 °F - 63.0 °F 90% 30.11 in 10.0 mi ESE 5.8 mph - N/A   Mostly Cloudy
5:53 AM 66.9 °F - 64.0 °F 90% 30.13 in 10.0 mi ESE 3.5 mph - N/A   Mostly Cloudy
6:53 AM 66.9 °F - 63.0 °F 87% 30.14 in 10.0 mi ESE 3.5 mph - N/A   Scattered Clouds
7:53 AM 69.1 °F - 64.0 °F 84% 30.15 in 10.0 mi SE 4.6 mph - N/A   Partly Cloudy
8:53 AM 73.0 °F - 63.0 °F 71% 30.16 in 10.0 mi SE 5.8 mph - N/A   Partly Cloudy
9:53 AM 77.0 °F - 63.0 °F 62% 30.17 in 10.0 mi South 8.1 mph - N/A   Clear
10:53 AM 79.0 °F - 64.0 °F 60% 30.16 in 10.0 mi SSE 5.8 mph - N/A   Clear
11:53 AM 81.0 °F 82.5 °F 64.0 °F 56% 30.14 in 10.0 mi SSE 6.9 mph - N/A   Partly Cloudy
12:53 PM 82.9 °F 84.4 °F 64.0 °F 53% 30.12 in 10.0 mi South 4.6 mph - N/A   Partly Cloudy
1:53 PM 86.0 °F 87.6 °F 64.9 °F 49% 30.09 in 10.0 mi Variable 3.5 mph - N/A   Mostly Cloudy
2:53 PM 86.0 °F 87.3 °F 64.0 °F 48% 30.07 in 10.0 mi WSW 6.9 mph - N/A   Scattered Clouds
3:53 PM 84.9 °F 86.1 °F 64.0 °F 49% 30.06 in 10.0 mi Calm Calm - N/A   Scattered Clouds
4:53 PM 82.9 °F 84.4 °F 64.0 °F 53% 30.05 in 10.0 mi SE 5.8 mph - N/A   Partly Cloudy
5:53 PM 82.9 °F 84.6 °F 64.9 °F 54% 30.04 in 10.0 mi SE 8.1 mph - N/A   Partly Cloudy
6:53 PM 78.1 °F - 66.0 °F 66% 30.04 in 10.0 mi SE 4.6 mph - N/A   Partly Cloudy
7:53 PM 75.0 °F - 66.0 °F 73% 30.05 in 10.0 mi SE 4.6 mph - N/A   Clear
8:53 PM 73.0 °F - 66.0 °F 79% 30.04 in 10.0 mi SE 6.9 mph - N/A   Clear
9:53 PM 71.1 °F - 64.9 °F 81% 30.05 in 10.0 mi SE 3.5 mph - N/A   Partly Cloudy
10:53 PM 71.1 °F - 64.9 °F 81% 30.06 in 10.0 mi ESE 3.5 mph - N/A   Mostly Cloudy
11:53 PM 68.0 °F - 64.0 °F 87% 30.05 in 10.0 mi ESE 3.5 mph - N/A   Partly Cloudy